TimeBST,TemperatureF,Dew PointF,Humidity,Sea Level PressureIn,VisibilityMPH,Wind Direction,Wind SpeedMPH,Gust SpeedMPH,PrecipitationIn,Events,Conditions,WindDirDegrees,DateUTC
12:20 AM,50.0,42.8,76,29.53,-9999.0,Variable,2.3,-,N/A,,Clear,0,2013-05-27 23:20:00
12:50 AM,50.0,42.8,76,29.53,6.2,Variable,2.3,-,N/A,,Unknown,0,2013-05-27 23:50:00
1:20 AM,48.2,42.8,82,29.53,6.2,East,3.5,-,N/A,,Scattered Clouds,80,2013-05-28 00:20:00
1:50 AM,50.0,42.8,76,29.53,6.2,South,6.9,-,N/A,,Scattered Clouds,170,2013-05-28 00:50:00
2:20 AM,48.2,42.8,82,29.53,6.2,SSE,5.8,-,N/A,,Unknown,150,2013-05-28 01:20:00
2:50 AM,48.2,42.8,82,29.53,6.2,SSE,4.6,-,N/A,,Unknown,160,2013-05-28 01:50:00
3:20 AM,46.4,42.8,87,29.53,6.2,Variable,3.5,-,N/A,,Unknown,0,2013-05-28 02:20:00
3:50 AM,48.2,44.6,87,29.53,6.2,East,4.6,-,N/A,,Mostly Cloudy,90,2013-05-28 02:50:00
4:20 AM,48.2,44.6,87,29.53,6.2,East,4.6,-,N/A,,Overcast,100,2013-05-28 03:20:00
4:50 AM,48.2,44.6,87,29.56,6.2,SE,5.8,-,N/A,,Mostly Cloudy,130,2013-05-28 03:50:00
5:20 AM,50.0,44.6,82,29.56,6.2,SSE,4.6,-,N/A,,Overcast,160,2013-05-28 04:20:00
5:50 AM,50.0,44.6,82,29.56,6.2,SE,5.8,-,N/A,,Mostly Cloudy,130,2013-05-28 04:50:00
6:20 AM,50.0,44.6,82,29.56,6.2,SE,5.8,-,N/A,,Scattered Clouds,130,2013-05-28 05:20:00
6:50 AM,50.0,44.6,82,29.56,6.2,SSE,8.1,-,N/A,,Partly Cloudy,150,2013-05-28 05:50:00
7:20 AM,50.0,44.6,82,29.59,6.2,South,9.2,-,N/A,,Scattered Clouds,170,2013-05-28 06:20:00
7:50 AM,51.8,44.6,76,29.59,6.2,SE,6.9,-,N/A,,Scattered Clouds,130,2013-05-28 06:50:00
8:20 AM,51.8,42.8,71,29.59,6.2,SSE,6.9,-,N/A,,Mostly Cloudy,150,2013-05-28 07:20:00
8:50 AM,51.8,42.8,71,29.62,6.2,SE,8.1,-,N/A,,Mostly Cloudy,130,2013-05-28 07:50:00
9:20 AM,51.8,42.8,71,29.62,6.2,SSE,5.8,-,N/A,,Mostly Cloudy,150,2013-05-28 08:20:00
9:50 AM,53.6,42.8,67,29.62,6.2,SE,9.2,-,N/A,,Mostly Cloudy,140,2013-05-28 08:50:00
10:20 AM,53.6,42.8,67,29.62,6.2,SSE,10.4,-,N/A,,Mostly Cloudy,150,2013-05-28 09:20:00
10:50 AM,53.6,42.8,67,29.65,6.2,SSE,6.9,-,N/A,,Scattered Clouds,150,2013-05-28 09:50:00
11:20 AM,55.4,42.8,63,29.65,6.2,SE,6.9,-,N/A,,Mostly Cloudy,130,2013-05-28 10:20:00
11:50 AM,55.4,42.8,63,29.65,6.2,SSE,9.2,-,N/A,,Mostly Cloudy,150,2013-05-28 10:50:00
12:20 PM,55.4,42.8,63,29.65,6.2,SE,10.4,-,N/A,,Mostly Cloudy,140,2013-05-28 11:20:00
12:50 PM,55.4,42.8,63,29.65,6.2,ESE,11.5,-,N/A,,Mostly Cloudy,110,2013-05-28 11:50:00
1:20 PM,53.6,42.8,67,29.68,6.2,ESE,11.5,-,N/A,,Mostly Cloudy,120,2013-05-28 12:20:00
1:50 PM,53.6,44.6,72,29.68,6.2,ESE,11.5,-,N/A,,Mostly Cloudy,120,2013-05-28 12:50:00
2:20 PM,55.4,44.6,67,29.68,6.2,ESE,9.2,-,N/A,,Mostly Cloudy,110,2013-05-28 13:20:00
2:50 PM,55.4,46.4,72,29.68,6.2,NE,9.2,-,N/A,,Mostly Cloudy,50,2013-05-28 13:50:00
3:20 PM,55.4,44.6,67,29.68,6.2,ENE,16.1,-,N/A,,Unknown,60,2013-05-28 14:20:00
3:50 PM,53.6,44.6,72,29.68,-9999.0,NE,15.0,-,N/A,,Clear,50,2013-05-28 14:50:00
4:20 PM,51.8,46.4,82,29.68,-9999.0,ENE,16.1,-,N/A,,Clear,60,2013-05-28 15:20:00
4:50 PM,51.8,46.4,82,29.71,6.2,NE,15.0,-,N/A,,Partly Cloudy,50,2013-05-28 15:50:00
5:20 PM,50.0,44.6,82,29.71,6.2,NE,13.8,-,N/A,,Mostly Cloudy,50,2013-05-28 16:20:00
5:50 PM,50.0,44.6,82,29.71,6.2,ENE,13.8,-,N/A,,Partly Cloudy,60,2013-05-28 16:50:00
6:20 PM,51.8,46.4,82,29.71,6.2,ENE,12.7,-,N/A,,Scattered Clouds,60,2013-05-28 17:20:00
6:50 PM,50.0,46.4,87,29.71,-9999.0,ENE,15.0,-,N/A,,Clear,60,2013-05-28 17:50:00
7:20 PM,50.0,46.4,87,29.71,-9999.0,NE,15.0,-,N/A,,Clear,50,2013-05-28 18:20:00
7:50 PM,50.0,46.4,87,29.74,-9999.0,NE,15.0,-,N/A,,Clear,50,2013-05-28 18:50:00
8:20 PM,50.0,46.4,87,29.74,-9999.0,ENE,15.0,-,N/A,,Clear,60,2013-05-28 19:20:00
8:50 PM,48.2,46.4,93,29.74,-9999.0,NE,15.0,-,N/A,,Clear,50,2013-05-28 19:50:00
9:20 PM,48.2,44.6,87,29.77,-9999.0,NE,15.0,-,N/A,,Clear,50,2013-05-28 20:20:00
9:50 PM,48.2,44.6,87,29.77,-9999.0,ENE,12.7,-,N/A,,Clear,60,2013-05-28 20:50:00
10:20 PM,46.4,44.6,93,29.77,6.2,ENE,11.5,-,N/A,,Unknown,60,2013-05-28 21:20:00
10:50 PM,46.4,42.8,87,29.80,6.2,ENE,10.4,-,N/A,,Unknown,60,2013-05-28 21:50:00
11:20 PM,46.4,42.8,87,29.80,6.2,ENE,9.2,-,N/A,,Unknown,70,2013-05-28 22:20:00
11:50 PM,44.6,42.8,93,29.80,6.2,Variable,3.5,-,N/A,,Unknown,0,2013-05-28 22:50:00